BAW370 LHBP-LWSK

Flight info

Callsign BAW370
Flight time 1h 4m
Altitude 39000
Route FAHAZ2L FAHAZ DCT KEROP DCT REDVA UL616 KOGAT KOGAT1A
Aircraft B788/H-SADE1E2E3FGHIJ3J4J5J6LM1M2OP2RWXYZ/LB1D1

Departure

Time 2026-04-23 18:46
Airport Budapest Liszt Ferenc International Airport (LHBP)

Arrival

Time 2026-04-23 19:50
Airport Skopje International Airport (LWSK)
Time Latitude Longitude Altitude Speed Heading
2026-04-23 18:29 47.43552 19.26036 489 ft 0 kts 178°
2026-04-23 18:43 47.43542 19.26033 480 ft 4 kts 206°
2026-04-23 18:43 47.43524 19.25982 487 ft 8 kts 253°
2026-04-23 18:43 47.43509 19.25884 482 ft 12 kts 263°
2026-04-23 18:43 47.43511 19.25748 482 ft 14 kts 279°
2026-04-23 18:44 47.43504 19.25614 483 ft 14 kts 234°
2026-04-23 18:44 47.43426 19.25499 475 ft 19 kts 222°
2026-04-23 18:44 47.43321 19.25343 470 ft 24 kts 225°
2026-04-23 18:44 47.43186 19.25162 464 ft 27 kts 218°
2026-04-23 18:45 47.43097 19.24988 464 ft 19 kts 277°
2026-04-23 18:45 47.43189 19.24798 463 ft 33 kts 311°
2026-04-23 18:45 47.43469 19.24342 458 ft 89 kts 312°
2026-04-23 18:45 47.44016 19.23462 483 ft 140 kts 311°
2026-04-23 18:46 47.44703 19.22346 1156 ft 141 kts 311°
2026-04-23 18:46 47.45371 19.21265 2156 ft 143 kts 316°
2026-04-23 18:46 47.46117 19.20074 2755 ft 173 kts 316°
2026-04-23 18:46 47.47004 19.18640 3349 ft 205 kts 316°
2026-04-23 18:47 47.48003 19.17008 4338 ft 218 kts 314°
2026-04-23 18:47 47.48736 19.15072 5047 ft 251 kts 291°
2026-04-23 18:47 47.48891 19.12452 6192 ft 267 kts 267°
2026-04-23 18:47 47.48207 19.09815 7283 ft 286 kts 238°
2026-04-23 18:48 47.46679 19.07838 8456 ft 297 kts 210°
2026-04-23 18:48 47.44820 19.06503 9609 ft 303 kts 206°
2026-04-23 18:48 47.42870 19.05200 10509 ft 317 kts 206°
2026-04-23 18:48 47.40785 19.03786 10921 ft 344 kts 206°
2026-04-23 18:49 47.38533 19.02218 11373 ft 369 kts 207°
2026-04-23 18:49 47.36194 19.00595 12470 ft 372 kts 206°
2026-04-23 18:49 47.33836 18.98979 13459 ft 378 kts 206°
2026-04-23 18:49 47.32242 18.97887 14088 ft 382 kts 206°
2026-04-23 18:50 47.30605 18.96767 14707 ft 386 kts 206°
2026-04-23 18:50 47.27353 18.94541 15916 ft 392 kts 206°
2026-04-23 18:50 47.24841 18.92823 16830 ft 397 kts 206°
2026-04-23 18:50 47.22339 18.91114 17689 ft 401 kts 206°
2026-04-23 18:51 47.19780 18.89369 18504 ft 406 kts 206°
2026-04-23 18:51 47.17200 18.87611 19224 ft 411 kts 206°
2026-04-23 18:51 47.14591 18.85912 19907 ft 417 kts 200°
2026-04-23 18:51 47.11735 18.85098 20621 ft 422 kts 182°
2026-04-23 18:52 47.08806 18.85469 21293 ft 425 kts 165°
2026-04-23 18:52 47.06021 18.87037 21993 ft 427 kts 148°
2026-04-23 18:52 47.03566 18.89445 22628 ft 430 kts 143°
2026-04-23 18:52 47.01113 18.92018 23289 ft 433 kts 142°
2026-04-23 18:53 46.98654 18.94635 23873 ft 437 kts 142°
2026-04-23 18:53 46.96187 18.97225 24435 ft 440 kts 142°
2026-04-23 18:53 46.93691 18.99815 24979 ft 443 kts 142°
2026-04-23 18:53 46.91171 19.02441 25506 ft 445 kts 141°
2026-04-23 18:54 46.88645 19.05062 26020 ft 449 kts 144°
2026-04-23 18:54 46.85986 19.07516 26478 ft 453 kts 144°
2026-04-23 18:54 46.83328 19.10015 26970 ft 455 kts 143°
2026-04-23 18:54 46.80658 19.12531 27445 ft 458 kts 143°
2026-04-23 18:55 46.77958 19.15038 27908 ft 462 kts 143°
2026-04-23 18:55 46.75233 19.17555 28359 ft 465 kts 143°
2026-04-23 18:55 46.72502 19.20091 28795 ft 467 kts 142°
2026-04-23 18:55 46.69750 19.22654 29235 ft 470 kts 142°
2026-04-23 18:56 46.66983 19.25218 29654 ft 473 kts 142°
2026-04-23 18:56 46.64158 19.27827 30054 ft 477 kts 142°
2026-04-23 18:56 46.61358 19.30412 30396 ft 480 kts 142°
2026-04-23 18:56 46.58533 19.33021 30732 ft 482 kts 142°
2026-04-23 18:57 46.55685 19.35647 31045 ft 485 kts 143°
2026-04-23 18:57 46.52850 19.38256 31364 ft 488 kts 143°
2026-04-23 18:57 46.49980 19.40893 31686 ft 491 kts 143°
2026-04-23 18:57 46.47088 19.43548 31994 ft 493 kts 143°
2026-04-23 18:58 46.44145 19.46248 32295 ft 496 kts 143°
2026-04-23 18:58 46.41234 19.48914 32604 ft 498 kts 143°
2026-04-23 18:58 46.38312 19.51586 32849 ft 501 kts 143°
2026-04-23 18:58 46.35362 19.54281 33135 ft 503 kts 143°
2026-04-23 18:59 46.32398 19.56984 33425 ft 505 kts 143°
2026-04-23 18:59 46.29433 19.59685 33821 ft 504 kts 144°
2026-04-23 18:59 46.26433 19.62414 34183 ft 504 kts 144°
2026-04-23 18:59 46.23480 19.65098 34495 ft 504 kts 144°
2026-04-23 19:00 46.20513 19.67749 34815 ft 505 kts 148°
2026-04-23 19:00 46.17259 19.69816 35152 ft 509 kts 160°
2026-04-23 19:00 46.13811 19.71045 35423 ft 512 kts 166°
2026-04-23 19:00 46.10320 19.72088 35731 ft 512 kts 167°
2026-04-23 19:01 46.06857 19.73094 36049 ft 511 kts 167°
2026-04-23 19:01 46.03371 19.74114 36382 ft 511 kts 167°
2026-04-23 19:01 45.99899 19.75146 36695 ft 510 kts 167°
2026-04-23 19:01 45.96389 19.76186 37027 ft 510 kts 167°
2026-04-23 19:02 45.92927 19.77199 37339 ft 509 kts 167°
2026-04-23 19:02 45.89470 19.78209 37651 ft 509 kts 167°
2026-04-23 19:02 45.85983 19.79233 37977 ft 508 kts 167°
2026-04-23 19:02 45.82520 19.80251 38288 ft 508 kts 168°
2026-04-23 19:03 45.79071 19.81259 38625 ft 507 kts 168°
2026-04-23 19:03 45.75638 19.82260 38926 ft 505 kts 168°
2026-04-23 19:03 45.72178 19.83269 39006 ft 509 kts 168°
2026-04-23 19:04 45.65221 19.85296 39009 ft 508 kts 168°
2026-04-23 19:04 45.58345 19.87292 39021 ft 504 kts 168°
2026-04-23 19:05 45.51464 19.89286 39017 ft 503 kts 168°
2026-04-23 19:05 45.44629 19.91261 39015 ft 502 kts 168°
2026-04-23 19:06 45.37778 19.93236 39023 ft 502 kts 168°
2026-04-23 19:06 45.30936 19.95203 39028 ft 502 kts 168°
2026-04-23 19:07 45.24088 19.97168 39034 ft 503 kts 168°
2026-04-23 19:07 45.17230 19.99130 39041 ft 503 kts 168°
2026-04-23 19:08 45.10383 20.01085 39048 ft 503 kts 168°
2026-04-23 19:08 45.03515 20.03040 39053 ft 502 kts 168°
2026-04-23 19:09 44.96648 20.04991 39056 ft 501 kts 168°
2026-04-23 19:09 44.89845 20.06919 39055 ft 501 kts 168°
2026-04-23 19:10 44.82993 20.08856 39057 ft 500 kts 168°
2026-04-23 19:10 44.76200 20.10771 39056 ft 499 kts 168°
2026-04-23 19:11 44.69366 20.12693 39055 ft 498 kts 168°
2026-04-23 19:11 44.62558 20.14604 39057 ft 498 kts 168°
2026-04-23 19:12 44.56890 20.16191 39056 ft 498 kts 168°
2026-04-23 19:12 44.48968 20.18404 39060 ft 498 kts 168°
2026-04-23 19:13 44.42153 20.20303 39050 ft 497 kts 167°
2026-04-23 19:13 44.35392 20.22183 39057 ft 498 kts 167°
2026-04-23 19:14 44.28593 20.24068 39060 ft 498 kts 167°
2026-04-23 19:14 44.21772 20.25955 39062 ft 498 kts 167°
2026-04-23 19:15 44.15006 20.27823 39066 ft 497 kts 167°
2026-04-23 19:15 44.08211 20.29694 39073 ft 496 kts 167°
2026-04-23 19:16 44.01432 20.31556 39082 ft 496 kts 167°
2026-04-23 19:16 43.94692 20.33404 39084 ft 497 kts 167°
2026-04-23 19:17 43.84456 20.36201 39083 ft 498 kts 167°
2026-04-23 19:17 43.77687 20.38046 39083 ft 499 kts 167°
2026-04-23 19:18 43.70868 20.39899 39091 ft 499 kts 167°
2026-04-23 19:18 43.64044 20.41751 39093 ft 499 kts 167°
2026-04-23 19:19 43.53823 20.44515 39091 ft 499 kts 167°
2026-04-23 19:20 43.43585 20.47274 39094 ft 500 kts 167°
2026-04-23 19:20 43.36752 20.49111 39050 ft 500 kts 167°
2026-04-23 19:21 43.33328 20.50030 38830 ft 502 kts 167°
2026-04-23 19:21 43.26502 20.51858 38449 ft 503 kts 166°
2026-04-23 19:21 43.23055 20.52779 38251 ft 503 kts 166°
2026-04-23 19:22 43.19620 20.53696 38072 ft 503 kts 166°
2026-04-23 19:22 43.16174 20.54616 37702 ft 503 kts 166°
2026-04-23 19:22 43.09260 20.56458 36169 ft 509 kts 166°
2026-04-23 19:23 43.05772 20.57385 35354 ft 512 kts 166°
2026-04-23 19:23 43.02264 20.58340 34490 ft 514 kts 162°
2026-04-23 19:23 42.98914 20.59844 33574 ft 512 kts 155°
2026-04-23 19:24 42.92274 20.63364 31834 ft 512 kts 155°
2026-04-23 19:24 42.88945 20.65124 30963 ft 513 kts 155°
2026-04-23 19:24 42.82290 20.68621 29201 ft 510 kts 155°
2026-04-23 19:25 42.75714 20.72082 27497 ft 503 kts 155°
2026-04-23 19:25 42.69222 20.75484 25842 ft 497 kts 155°
2026-04-23 19:26 42.62840 20.78825 24212 ft 492 kts 155°
2026-04-23 19:26 42.59643 20.80495 23341 ft 490 kts 155°
2026-04-23 19:27 42.53343 20.83780 21731 ft 480 kts 155°
2026-04-23 19:27 42.44119 20.88578 19364 ft 467 kts 155°
2026-04-23 19:28 42.38097 20.91703 17799 ft 459 kts 155°
2026-04-23 19:28 42.32213 20.94750 16286 ft 447 kts 156°
2026-04-23 19:29 42.29323 20.96244 15533 ft 442 kts 156°
2026-04-23 19:29 42.23675 20.99159 14098 ft 433 kts 156°
2026-04-23 19:30 42.18110 21.02032 12650 ft 423 kts 157°
2026-04-23 19:30 42.15385 21.03457 11902 ft 419 kts 154°
2026-04-23 19:30 42.10941 21.08150 10996 ft 390 kts 125°
2026-04-23 19:31 42.09576 21.11126 10987 ft 364 kts 112°
2026-04-23 19:31 42.08623 21.14159 10985 ft 344 kts 110°
2026-04-23 19:31 42.07715 21.17082 10978 ft 336 kts 109°
2026-04-23 19:31 42.07112 21.19055 10981 ft 335 kts 109°
2026-04-23 19:32 42.06236 21.21931 10984 ft 336 kts 109°
2026-04-23 19:32 42.05336 21.24871 10851 ft 340 kts 109°
2026-04-23 19:32 42.04433 21.27797 10602 ft 334 kts 110°
2026-04-23 19:32 42.03575 21.30560 10325 ft 307 kts 109°
2026-04-23 19:33 42.02788 21.33103 10051 ft 279 kts 109°
2026-04-23 19:33 42.02063 21.35467 9765 ft 271 kts 109°
2026-04-23 19:33 42.00644 21.40072 9182 ft 262 kts 109°
2026-04-23 19:34 41.99949 21.42310 8907 ft 260 kts 109°
2026-04-23 19:34 41.99252 21.44562 8626 ft 257 kts 109°
2026-04-23 19:34 41.97895 21.48951 8109 ft 252 kts 109°
2026-04-23 19:35 41.97226 21.51102 7840 ft 251 kts 109°
2026-04-23 19:35 41.96549 21.53274 7570 ft 250 kts 109°
2026-04-23 19:35 41.95879 21.55426 7318 ft 249 kts 109°
2026-04-23 19:35 41.95218 21.57555 7072 ft 249 kts 109°
2026-04-23 19:36 41.94557 21.59680 6909 ft 245 kts 109°
2026-04-23 19:36 41.93838 21.61782 6766 ft 249 kts 120°
2026-04-23 19:36 41.92506 21.63322 6617 ft 256 kts 153°
2026-04-23 19:36 41.90806 21.64043 6488 ft 256 kts 165°
2026-04-23 19:37 41.89077 21.64620 6309 ft 259 kts 166°
2026-04-23 19:37 41.87325 21.65208 6043 ft 258 kts 165°
2026-04-23 19:37 41.85594 21.65814 5770 ft 259 kts 165°
2026-04-23 19:37 41.83864 21.66419 5513 ft 257 kts 165°
2026-04-23 19:38 41.82121 21.67023 5273 ft 257 kts 164°
2026-04-23 19:38 41.80408 21.67622 5016 ft 257 kts 165°
2026-04-23 19:38 41.78680 21.68212 4778 ft 255 kts 164°
2026-04-23 19:38 41.76946 21.68815 4527 ft 257 kts 164°
2026-04-23 19:39 41.75219 21.69419 4242 ft 258 kts 164°
2026-04-23 19:39 41.73472 21.70017 4007 ft 258 kts 165°
2026-04-23 19:39 41.71781 21.70604 3987 ft 250 kts 165°
2026-04-23 19:39 41.70119 21.71180 3998 ft 246 kts 164°
2026-04-23 19:40 41.68434 21.71760 3987 ft 250 kts 165°
2026-04-23 19:40 41.66770 21.72328 3994 ft 248 kts 164°
2026-04-23 19:40 41.65088 21.72914 3986 ft 248 kts 164°
2026-04-23 19:40 41.63423 21.73488 3998 ft 249 kts 165°
2026-04-23 19:41 41.61735 21.74069 3988 ft 248 kts 164°
2026-04-23 19:41 41.60044 21.74373 3978 ft 250 kts 188°
2026-04-23 19:41 41.58462 21.73533 3980 ft 248 kts 220°
2026-04-23 19:41 41.57431 21.71769 3993 ft 236 kts 250°
2026-04-23 19:42 41.57181 21.69628 3973 ft 232 kts 279°
2026-04-23 19:42 41.57710 21.67667 3989 ft 226 kts 307°
2026-04-23 19:42 41.58840 21.66279 3974 ft 220 kts 334°
2026-04-23 19:42 41.60294 21.65737 3981 ft 220 kts 359°
2026-04-23 19:43 41.61795 21.66155 3958 ft 221 kts 23°
2026-04-23 19:43 41.63107 21.67178 3855 ft 217 kts 29°
2026-04-23 19:43 41.64396 21.68200 3746 ft 211 kts 28°
2026-04-23 19:43 41.65654 21.69196 3623 ft 207 kts 28°
2026-04-23 19:44 41.66865 21.70159 3594 ft 199 kts 29°
2026-04-23 19:44 41.68048 21.71045 3580 ft 192 kts 21°
2026-04-23 19:44 41.69352 21.71183 3585 ft 185 kts 359°
2026-04-23 19:44 41.70617 21.70962 3592 ft 184 kts 348°
2026-04-23 19:45 41.71854 21.70569 3597 ft 183 kts 346°
2026-04-23 19:45 41.73097 21.70133 3598 ft 181 kts 346°
2026-04-23 19:45 41.74290 21.69732 3605 ft 178 kts 346°
2026-04-23 19:45 41.75487 21.69309 3582 ft 176 kts 347°
2026-04-23 19:46 41.76663 21.68909 3597 ft 176 kts 347°
2026-04-23 19:46 41.77847 21.68491 3598 ft 174 kts 347°
2026-04-23 19:46 41.79043 21.68092 3603 ft 177 kts 347°
2026-04-23 19:46 41.80211 21.67690 3544 ft 176 kts 347°
2026-04-23 19:47 41.81383 21.67269 3591 ft 177 kts 347°
2026-04-23 19:47 41.82579 21.66877 3564 ft 179 kts 346°
2026-04-23 19:47 41.83784 21.66447 3325 ft 177 kts 346°
2026-04-23 19:47 41.84914 21.66052 3092 ft 159 kts 346°
2026-04-23 19:48 41.85926 21.65700 2838 ft 144 kts 347°
2026-04-23 19:48 41.86875 21.65377 2642 ft 144 kts 346°
2026-04-23 19:48 41.87837 21.65036 2442 ft 142 kts 345°
2026-04-23 19:48 41.88779 21.64693 2233 ft 139 kts 342°
2026-04-23 19:49 41.89732 21.64359 1998 ft 145 kts 349°
2026-04-23 19:49 41.90704 21.64017 1700 ft 144 kts 343°
2026-04-23 19:49 41.91651 21.63692 1426 ft 135 kts 348°
2026-04-23 19:49 41.92573 21.63397 1376 ft 142 kts 346°
2026-04-23 19:50 41.93537 21.63055 1169 ft 145 kts 345°
2026-04-23 19:50 41.94490 21.62723 882 ft 138 kts 346°
2026-04-23 19:50 41.95349 21.62421 785 ft 104 kts 346°
2026-04-23 19:50 41.95803 21.62266 786 ft 45 kts 345°
2026-04-23 19:51 41.95960 21.62243 788 ft 9 kts 34°
2026-04-23 19:51 41.95989 21.62314 789 ft 11 kts 71°
2026-04-23 19:51 41.96010 21.62416 789 ft 12 kts 85°
2026-04-23 19:51 41.96022 21.62528 788 ft 12 kts 82°
2026-04-23 19:52 41.96033 21.62585 788 ft 1 kts 71°